Weather History for Juneau, WI

Change the Weather History Date:

Wednesday, October 30, 2013

  Actual Average Record
Temperature  
Mean Temperature 47 °F -  
Max Temperature 54 °F 51 °F 74 °F (1971)
Min Temperature 41 °F 37 °F 14 °F (1988)
Degree Days  
Heating Degree Days 18    
Moisture  
Dew Point 48 °F    
Average Humidity 95    
Maximum Humidity 100    
Minimum Humidity 83    
Precipitation  
Precipitation 0.00 in - - ()
Sea Level Pressure  
Sea Level Pressure 30.00 in    
Wind  
Wind Speed 6 mph (SE)    
Max Wind Speed 16 mph    
Max Gust Speed 20 mph    
Visibility 3 miles    
Events Fog    
Averages and records for this station are not official NWS values.
T = Trace of Precipitation, MM = Missing Value Source: NWS Daily Summary

Daily Weather History Graph

Daily Weather History Graph

Search for Another Location

Airport:

Trip Planner

Search our weather history database for the weather conditions in past years. The results will help you decide how hot, cold, wet, or windy it might be!

Date:

Astronomy

Oct. 30, 2013 Rise Set
Actual Time 7:27 AM CDT 5:48 PM CDT
Civil Twilight 6:58 AM CDT 6:17 PM CDT
Nautical Twilight 6:24 AM CDT 6:51 PM CDT
Astronomical Twilight 5:51 AM CDT 7:24 PM CDT
Moon 3:09 AM CDT (10/30) 3:39 PM CDT (10/30)
Length of Visible Light 11h 19m
Length of Day
10h 20m
Waning Crescent, 17% of the Moon is Illuminated
Oct 30
Waning Crescent
Nov 3
New
Nov 9
First Quarter
Nov 17
Full
Nov 25
Last Quarter

Hourly Weather History & Observations

Time (CDT) Temp. Windchill Dew Point Humidity Pressure Visibility Wind Dir Wind Speed Gust Speed Precip Events Conditions
12:15 AM 41.7 °F 37.3 °F 40.6 °F 96% 30.13 in 4.0 mi ESE 6.9 mph - N/A   Mostly Cloudy
12:35 AM 42.8 °F 39.3 °F 41.4 °F 95% 30.13 in 4.0 mi ESE 5.8 mph - N/A   Overcast
12:55 AM 43.5 °F 38.9 °F 42.1 °F 95% 30.12 in 5.0 mi SE 8.1 mph - N/A   Overcast
1:15 AM 43.9 °F 39.9 °F 41.7 °F 92% 30.12 in 5.0 mi SE 6.9 mph - N/A   Overcast
1:35 AM 44.6 °F 40.2 °F 41.9 °F 90% 30.12 in 5.0 mi SE 8.1 mph - N/A   Overcast
1:55 AM 45.1 °F 42.0 °F 41.9 °F 88% 30.12 in 7.0 mi SSE 5.8 mph - N/A   Overcast
2:15 AM 45.5 °F 43.2 °F 41.2 °F 85% 30.11 in 7.0 mi SE 4.6 mph - N/A   Overcast
2:35 AM 45.7 °F 44.4 °F 41.0 °F 84% 30.11 in 7.0 mi SSE 3.5 mph - N/A   Overcast
2:55 AM 45.9 °F - 41.0 °F 83% 30.11 in 7.0 mi Calm Calm - N/A   Overcast
3:15 AM 45.0 °F - 41.2 °F 87% 30.11 in 5.0 mi Calm Calm - N/A   Overcast
3:35 AM 44.2 °F 42.7 °F 40.8 °F 88% 30.11 in 5.0 mi East 3.5 mph - N/A   Overcast
3:55 AM 44.8 °F 43.3 °F 41.0 °F 87% 30.10 in 7.0 mi ESE 3.5 mph - N/A   Overcast
4:15 AM 44.8 °F 43.3 °F 41.2 °F 87% 30.10 in 5.0 mi SSE 3.5 mph - N/A   Overcast
4:35 AM 45.9 °F 42.9 °F 42.6 °F 88% 30.11 in 4.0 mi SSW 5.8 mph - N/A   Overcast
4:55 AM 45.9 °F 42.3 °F 43.2 °F 90% 30.11 in 2.5 mi South 6.9 mph - N/A   Overcast
5:15 AM 46.2 °F 44.1 °F 44.1 °F 92% 30.11 in 1.5 mi SSW 4.6 mph - N/A   Overcast
5:35 AM 45.9 °F - 45.0 °F 97% 30.11 in 0.2 mi Calm Calm - N/A Fog Fog
5:55 AM 46.0 °F - 45.9 °F 99% 30.11 in 0.2 mi Calm Calm - N/A Fog Fog
6:15 AM 45.7 °F - 45.7 °F 100% 30.11 in 0.2 mi Calm Calm - N/A Fog Fog
6:35 AM 46.0 °F - 46.0 °F 100% 30.11 in 0.2 mi Calm Calm - N/A Fog Fog
6:55 AM 46.0 °F - 46.0 °F 100% 30.10 in 0.2 mi Calm Calm - N/A Fog Fog
7:15 AM 46.2 °F 44.1 °F 46.2 °F 100% 30.10 in 0.2 mi SSE 4.6 mph - N/A Fog Fog
7:35 AM 46.4 °F 44.3 °F 46.4 °F 100% 30.10 in 0.2 mi SE 4.6 mph - N/A Fog Fog
7:55 AM 46.4 °F 44.3 °F 46.4 °F 100% 30.09 in 0.2 mi ESE 4.6 mph - N/A Fog Fog
8:15 AM 46.4 °F 43.5 °F 46.4 °F 100% 30.09 in 0.2 mi ESE 5.8 mph - N/A Fog Fog
8:35 AM 46.4 °F 44.3 °F 46.4 °F 100% 30.10 in 0.2 mi SE 4.6 mph - N/A Fog Fog
8:55 AM 46.8 °F - 46.8 °F 100% 30.09 in 0.2 mi SE 8.1 mph - N/A Fog Fog
9:15 AM 47.3 °F - 47.3 °F 100% 30.09 in 0.2 mi SE 6.9 mph - N/A Fog Fog
9:35 AM 47.8 °F - 47.8 °F 100% 30.09 in 0.5 mi SE 6.9 mph - N/A Fog Fog
9:55 AM 48.4 °F - 48.4 °F 100% 30.10 in 0.8 mi ESE 8.1 mph - N/A   Overcast
10:15 AM 48.6 °F - 48.6 °F 100% 30.09 in 0.2 mi ESE 5.8 mph - N/A Fog Fog
10:35 AM 49.1 °F - 49.1 °F 100% 30.08 in 0.8 mi ESE 8.1 mph - N/A   Overcast
10:55 AM 49.3 °F - 49.3 °F 100% 30.08 in 1.0 mi SE 8.1 mph - N/A   Overcast
11:15 AM 49.8 °F - 49.8 °F 100% 30.07 in 2.0 mi ESE 6.9 mph - N/A   Overcast
11:35 AM 50.2 °F - 50.2 °F 100% 30.05 in 4.0 mi East 6.9 mph - N/A   Overcast
11:55 AM 50.9 °F - 50.9 °F 100% 30.06 in 4.0 mi ESE 10.4 mph - N/A   Overcast
12:15 PM 51.4 °F - 51.4 °F 100% 30.05 in 5.0 mi SE 12.7 mph - N/A   Overcast
12:35 PM 52.0 °F - 50.5 °F 95% 30.04 in 5.0 mi SE 11.5 mph - N/A   Overcast
12:55 PM 52.5 °F - 50.5 °F 93% 30.02 in 5.0 mi SE 8.1 mph - N/A   Overcast
1:15 PM 52.7 °F - 50.4 °F 92% 30.02 in 4.0 mi ESE 9.2 mph - N/A   Overcast
1:35 PM 52.7 °F - 50.4 °F 92% 30.01 in 4.0 mi SE 10.4 mph - N/A   Overcast
1:55 PM 52.7 °F - 50.4 °F 92% 30.00 in 3.0 mi ESE 10.4 mph - N/A   Overcast
2:15 PM 52.5 °F - 50.0 °F 91% 29.99 in 3.0 mi ESE 9.2 mph - N/A   Overcast
2:35 PM 52.9 °F - 50.0 °F 90% 29.98 in 3.0 mi SE 9.2 mph - N/A   Overcast
2:55 PM 52.9 °F - 49.6 °F 89% 29.95 in 4.0 mi ESE 10.4 mph - N/A   Overcast
3:15 PM 53.6 °F - 50.0 °F 88% 29.94 in 4.0 mi ESE 11.5 mph - N/A   Overcast
3:35 PM 53.4 °F - 50.0 °F 88% 29.93 in 4.0 mi ESE 9.2 mph - N/A   Overcast
3:55 PM 53.1 °F - 50.4 °F 91% 29.93 in 3.0 mi ESE 9.2 mph - N/A   Light Drizzle
4:15 PM 53.1 °F - 50.5 °F 91% 29.91 in 4.0 mi ESE 9.2 mph - N/A   Overcast
4:35 PM 53.2 °F - 50.4 °F 90% 29.91 in 4.0 mi ESE 8.1 mph - N/A   Overcast
4:55 PM 53.6 °F - 50.4 °F 89% 29.90 in 4.0 mi SE 15.0 mph - N/A   Overcast
5:15 PM 53.6 °F - 50.5 °F 89% 29.87 in 4.0 mi SE 13.8 mph - N/A   Overcast
5:35 PM 53.6 °F - 51.1 °F 91% 29.86 in 4.0 mi ESE 12.7 mph 19.6 mph N/A   Overcast
5:55 PM 53.6 °F - 51.4 °F 92% 29.84 in 3.0 mi SE 16.1 mph - N/A   Overcast
6:15 PM 53.8 °F - 52.0 °F 94% 29.89 in 3.0 mi SSE 3.5 mph 18.4 mph N/A   Overcast
7:55 PM 53.6 °F - 52.9 °F 97% 29.86 in 1.8 mi East 8.1 mph - N/A   Overcast
8:15 PM 53.2 °F - 52.7 °F 98% 29.84 in 1.8 mi East 5.8 mph - N/A   Mostly Cloudy
8:35 PM 53.4 °F - 53.1 °F 99% 29.83 in 2.0 mi ENE 5.8 mph - N/A   Clear
8:55 PM 53.1 °F - 53.1 °F 100% 29.79 in 2.0 mi East 8.1 mph - N/A   Clear
9:15 PM 52.7 °F - 52.5 °F 99% 29.78 in 1.8 mi East 5.8 mph - N/A   Mist
9:35 PM 52.2 °F - 52.2 °F 100% 29.79 in 1.8 mi ESE 6.9 mph - N/A   Mist
9:55 PM 51.8 °F - 51.8 °F 100% 29.79 in 1.2 mi ESE 6.9 mph - N/A   Mist
10:15 PM 50.9 °F - 50.9 °F 100% 29.77 in 1.0 mi ESE 8.1 mph - N/A   Mostly Cloudy
10:35 PM 51.3 °F - 51.3 °F 100% 29.77 in 1.0 mi ESE 3.5 mph - N/A   Overcast
10:55 PM 50.9 °F - 50.9 °F 100% 29.77 in 0.8 mi ESE 4.6 mph - N/A   Overcast
11:15 PM 51.1 °F - 51.1 °F 100% 29.76 in 1.0 mi SE 8.1 mph - N/A   Overcast
11:35 PM 51.4 °F - 51.4 °F 100% 29.76 in 1.2 mi ESE 6.9 mph - N/A   Overcast
11:55 PM 51.3 °F - 51.3 °F 100% 29.76 in 1.0 mi SE 5.8 mph - N/A   Overcast